Printer-friendly version

IAU Minor Planet Center

Minor Planet Center

MPEC 2006-T64 : 2006 SV189

The following Minor Planet Electronic Circular may be linked-to from your own Web pages, but must not otherwise be redistributed electronically.


Read MPEC 2006-T63 Read MPEC 2006-T65


M.P.E.C. 2006-T64                                Issued 2006 Oct. 12, 20:05 UT

     The Minor Planet Electronic Circulars contain information on unusual
         minor planets and routine data on comets.  They are published
   on behalf of Commission 20 of the International Astronomical Union by the
          Minor Planet Center, Smithsonian Astrophysical Observatory,
                          Cambridge, MA 02138, U.S.A.

             Prepared using the Tamkin Foundation Computer Network

                              MPC@CFA.HARVARD.EDU
          URL http://cfa-www.harvard.edu/iau/mpc.html  ISSN 1523-6714

                                  2006 SV189

Additional Observations:
     K06SI9V  C2006 10 10.21279 23 41 22.77 +04 13 34.5          19.8 R ET064644
     K06SI9V  C2006 10 10.23327 23 41 20.27 +04 14 02.5          19.6 R ET064644
     K06SI9V  C2006 10 10.25497 23 41 17.60 +04 14 32.2          20.0 R ET064644
     K06SI9V  C2006 10 11.16631 23 39 32.59 +04 35 10.3          19.3 R ET064644
     K06SI9V  C2006 10 11.18692 23 39 30.10 +04 35 38.4          19.2 R ET064644
     K06SI9V  C2006 10 11.20865 23 39 27.46 +04 36 08.4          19.5 R ET064644

Observer details:
644 Palomar Mountain/NEAT.  Observers M. Brown, R. Bambery, K. Lawrence,
    M. Hicks, E. Helin, R. Thicksten.  1.2-m Schmidt + CCD.

Orbital elements:
2006 SV189                                               Earth MOID = 0.3708 AU
Epoch 2006 Sept. 22.0 TT = JDT 2454000.5                MPC
M 324.61967              (2000.0)            P               Q
n   0.37768836     Peri.   61.14223     +0.41684530     -0.90873615
a   1.8954557      Node     4.38358     +0.70892323     +0.31059612
e   0.3225507      Incl.   15.90270     +0.56891813     +0.27879862
P   2.61           H   19.9           G   0.15           U   7
Residuals in seconds of arc
060926 G96  0.1+  0.2-    060927 704  0.6+  0.3-    061010 644  0.4-  0.3-
060926 G96  0.3+  0.2-    060928 691  0.0   0.4-    061010 644  0.1-  0.1-
060926 G96  0.2-  0.4-    060928 691  0.5-  0.5+    061010 644  0.1+  0.2+
060926 G96  0.1+  0.2-    060928 691  0.1-  0.0     061011 644  0.1+  0.0
060927 704  0.5+  0.7+    060929 704  0.3-  0.4-    061011 644  0.2+  0.0
060927 704  1.0-  0.6+    060929 704  0.3+  0.3+    061011 644  0.1+  0.3+
060927 704  0.0   0.4+    060929 704  1.0+  0.3-
060927 704  0.8+  0.3-    060929 704  0.5+  0.7-

Ephemeris:
2006 SV189               a,e,i = 1.90, 0.32, 16                  q = 1.2841
Date    TT    R. A. (2000) Decl.     Delta      r     Elong.  Phase     V
2006 10 12    23 37.95   +04 54.3    0.450    1.424   157.5    15.6    19.8
2006 10 22    23 21.21   +08 42.8    0.456    1.392   144.4    24.6    20.1
2006 11 01    23 10.47   +12 26.2    0.476    1.362   133.0    32.2    20.3
2006 11 11    23 06.78   +15 59.9    0.505    1.337   123.5    38.1    20.6
2006 11 21    23 09.97   +19 24.8    0.540    1.316   115.8    42.5    20.8
2006 12 01    23 19.49   +22 44.4    0.578    1.300   109.7    45.6    21.0
2006 12 11    23 34.61   +26 00.4    0.617    1.289   104.9    47.6    21.2
2006 12 21    23 54.83   +29 11.8    0.657    1.284   101.1    48.7    21.4
2006 12 31    00 19.86   +32 16.3    0.699    1.285    98.2    49.2    21.5
2007 01 10    00 49.39   +35 08.2    0.741    1.292    96.0    49.2    21.6
2007 01 20    01 23.18   +37 40.0    0.787    1.304    94.2    48.8    21.8
2007 01 30    02 00.80   +39 43.8    0.837    1.321    92.6    48.1    21.9

Kyle E. Smalley              (C) Copyright 2006 MPC           M.P.E.C. 2006-T64

Read MPEC 2006-T63 Read MPEC 2006-T65


Our Web policy. Index to the CBAT/MPC/ICQ pages.


Valid HTML 4.01!